Find Starlink 34259

NORAD ID: 65368 Int'l Des: 2025-190 Owner: SPXS Country: US Constellation: starlink operational
LEOCIRCULAR

当前视图

正在加载3D地球...

About Starlink 34259

Starlink 34259 (NORAD 65368) is a starlink constellation satellite (v2 mini) launched Aug 28, 2025 by SPXS of US. It operates in LEO, CIRCULAR orbit with a mass of 575.00 kg.

即将过境

Passes for default location (London). Set your location on the main map for personalized predictions.

高度历史

Loading altitude history...

两行轨道根数

1 65368U 25190T 26265.46429284 .00023037 00000-0 69090-3 0 9997
2 65368 53.1603 330.5387 0001089 109.1370 250.9751 15.34397644 59937
Epoch: Sep 22, 2026 • Age: 9 hours

当前状态

高度 469.3 km
远地点 / 近地点 N/A
速度 7.63 km/s
星下点 -21.55°S, 3.85°E
发射日期 Aug 28, 2025
运行时间 1 year
类型 internet

技术详情

分类 Payload
质量 575.00 kg
干质量 530.00 kg
长度 0.30 m
跨度 29.00 m
形状 ? Box + pan
制造商 SPXS
平台类型 Starlink V2MO
阶段状态 In Orbit
所有者/国家 SPXS/US

Most Searched